Back to catalog

PAKTES 1A

AliveScienceSSO
NORAD 43529·PAYLOAD·🇵🇰 Pakistan

Launched Jul 9, 2018 from Jiuquan Satellite Launch Center

Loading…

Next Passes (next 24 hours)

TLE

FreshSource: Space-Track

Epoch: Sep 14, 2026, 21:41 UTC

1 43529U 18056A   26257.90372128  .00001473  00000-0  12514-3 0  9998
2 43529  98.1371  58.2972 0021254 176.8648 183.2711 14.99408422445369

Track PAKTES 1A in real time with AllMySat

Download on the App Store